11-02-2022, 00:00:05,    241,    1.4,    0.2,   0.00,   0.00, 1022.4,   78.2, -999.0
11-02-2022, 00:00:15,    241,    0.4,    0.3,   0.00,   0.00, 1022.4,   78.3, -999.0
11-02-2022, 00:00:25,    241,    0.0,    0.2,   0.00,   0.00, 1022.4,   78.0, -999.0
11-02-2022, 00:00:35,    241,    0.0,    0.2,   0.00,   0.00, 1022.4,   78.2, -999.0
11-02-2022, 00:00:45,    241,    0.0,    0.2,   0.00,   0.00, 1022.4,   78.0, -999.0
11-02-2022, 00:00:55,    241,    0.0,    0.2,   0.00,   0.00, 1022.3,   78.1, -999.0
11-02-2022, 00:01:05,    241,    0.0,    0.2,   0.00,   0.00, 1022.3,   78.2, -999.0
11-02-2022, 00:01:15,    241,    0.0,    0.2,   0.00,   0.00, 1022.3,   78.3, -999.0
11-02-2022, 00:01:25,    284,    0.2,    0.2,   0.00,   0.00, 1022.4,   78.2, -999.0
11-02-2022, 00:01:35,    251,    2.5,    0.3,   0.00,   0.00, 1022.5,   78.4, -999.0
11-02-2022, 00:01:45,    246,    2.4,    0.3,   0.00,   0.00, 1022.5,   78.3, -999.0
11-02-2022, 00:01:55,    249,    0.8,    0.3,   0.00,   0.00, 1022.5,   78.5, -999.0
11-02-2022, 00:02:04,    247,    1.2,    0.3,   0.00,   0.00, 1022.5,   78.5, -999.0
11-02-2022, 00:02:15,    248,    1.0,    0.3,   0.00,   0.00, 1022.5,   78.5, -999.0
11-02-2022, 00:02:25,    243,    0.9,    0.3,   0.00,   0.00, 1022.5,   78.5, -999.0
11-02-2022, 00:02:34,    249,    1.0,    0.3,   0.00,   0.00, 1022.5,   78.5, -999.0
11-02-2022, 00:02:44,    250,    0.9,    0.3,   0.00,   0.00, 1022.5,   78.5, -999.0
11-02-2022, 00:02:55,    254,    0.3,    0.3,   0.00,   0.00, 1022.4,   78.4, -999.0
11-02-2022, 00:03:04,    277,    1.3,    0.3,   0.00,   0.00, 1022.5,   78.5, -999.0
11-02-2022, 00:03:14,    277,    0.3,    0.3,   0.00,   0.00, 1022.4,   78.4, -999.0
11-02-2022, 00:03:25,    249,    2.2,    0.3,   0.00,   0.00, 1022.5,   78.5, -999.0
11-02-2022, 00:03:34,    243,    1.4,    0.3,   0.00,   0.00, 1022.5,   78.5, -999.0
11-02-2022, 00:03:44,    243,    0.1,    0.3,   0.00,   0.00, 1022.4,   78.3, -999.0
11-02-2022, 00:03:54,    243,    0.0,    0.2,   0.00,   0.00, 1022.3,   78.2, -999.0
11-02-2022, 00:04:04,    242,    0.2,    0.2,   0.00,   0.00, 1022.4,   78.1, -999.0
11-02-2022, 00:04:14,    242,    2.9,    0.3,   0.00,   0.00, 1022.5,   78.5, -999.0
11-02-2022, 00:04:24,    263,    0.9,    0.3,   0.00,   0.00, 1022.5,   78.5, -999.0
11-02-2022, 00:04:34,    207,    1.4,    0.3,   0.00,   0.00, 1022.5,   78.6, -999.0
11-02-2022, 00:04:44,    234,    0.5,    0.3,   0.00,   0.00, 1022.5,   78.6, -999.0
11-02-2022, 00:04:54,    234,    0.0,    0.2,   0.00,   0.00, 1022.4,   78.2, -999.0
11-02-2022, 00:05:04,    297,    0.1,    0.2,   0.00,   0.00, 1022.4,   78.3, -999.0
11-02-2022, 00:05:14,    298,    0.2,    0.4,   0.00,   0.00, 1022.4,   78.5, -999.0
11-02-2022, 00:05:24,    296,    0.0,    0.2,   0.00,   0.00, 1022.3,   78.2, -999.0
11-02-2022, 00:05:34,    296,    0.0,    0.2,   0.00,   0.00, 1022.3,   78.1, -999.0
11-02-2022, 00:05:43,    296,    0.0,    0.1,   0.00,   0.00, 1022.3,   78.2, -999.0
11-02-2022, 00:05:54,    295,    0.0,    0.2,   0.00,   0.00, 1022.4,   78.3, -999.0
11-02-2022, 00:06:04,    254,    0.2,    0.2,   0.00,   0.00, 1022.4,   78.3, -999.0
11-02-2022, 00:06:13,    252,    1.9,    0.1,   0.00,   0.00, 1022.5,   78.6, -999.0
11-02-2022, 00:06:23,    298,    0.5,    0.2,   0.00,   0.00, 1022.4,   78.4, -999.0
11-02-2022, 00:06:34,    284,    1.0,    0.2,   0.00,   0.00, 1022.5,   78.4, -999.0
11-02-2022, 00:06:43,    244,    0.4,    0.1,   0.00,   0.00, 1022.4,   78.4, -999.0
11-02-2022, 00:06:53,    244,    0.2,    0.3,   0.00,   0.00, 1022.4,   78.3, -999.0
11-02-2022, 00:07:03,    249,    0.0,    0.2,   0.00,   0.00, 1022.4,   78.2, -999.0
11-02-2022, 00:07:13,    250,    0.0,    0.2,   0.00,   0.00, 1022.4,   78.1, -999.0
11-02-2022, 00:07:23,    271,    0.1,    0.2,   0.00,   0.00, 1022.4,   78.2, -999.0
11-02-2022, 00:07:33,    270,    1.6,    0.2,   0.00,   0.00, 1022.5,   78.5, -999.0
11-02-2022, 00:07:43,    240,    1.9,    0.2,   0.00,   0.00, 1022.5,   78.5, -999.0
11-02-2022, 00:07:53,    239,    1.6,    0.3,   0.00,   0.00, 1022.5,   78.4, -999.0
11-02-2022, 00:08:03,    270,    2.9,    0.3,   0.00,   0.00, 1022.5,   78.5, -999.0
11-02-2022, 00:08:13,    250,    1.7,    0.3,   0.00,   0.00, 1022.5,   78.6, -999.0
11-02-2022, 00:08:23,    246,    0.7,    0.4,   0.00,   0.00, 1022.5,   78.6, -999.0
11-02-2022, 00:08:33,    247,    0.1,    0.2,   0.00,   0.00, 1022.4,   78.5, -999.0
11-02-2022, 00:08:43,    247,    0.2,    0.3,   0.00,   0.00, 1022.4,   78.4, -999.0
11-02-2022, 00:08:52,    249,    0.0,    0.2,   0.00,   0.00, 1022.4,   78.2, -999.0
11-02-2022, 00:09:03,    243,    0.8,    0.3,   0.00,   0.00, 1022.5,   78.7, -999.0
11-02-2022, 00:09:13,    231,    1.4,    0.3,   0.00,   0.00, 1022.5,   78.7, -999.0
11-02-2022, 00:09:22,    271,    1.3,    0.2,   0.00,   0.00, 1022.5,   78.6, -999.0
11-02-2022, 00:09:33,    269,    2.0,    0.3,   0.00,   0.00, 1022.5,   78.6, -999.0
11-02-2022, 00:09:43,    255,    1.2,    0.2,   0.00,   0.00, 1022.5,   78.7, -999.0
11-02-2022, 00:09:52,    256,    0.2,    0.2,   0.00,   0.00, 1022.4,   78.6, -999.0
11-02-2022, 00:10:02,    257,    0.2,    0.2,   0.00,   0.00, 1022.5,   78.6, -999.0
11-02-2022, 00:10:13,    258,    0.0,    0.2,   0.00,   0.00, 1022.4,   78.4, -999.0
11-02-2022, 00:10:22,    257,    0.2,    0.1,   0.00,   0.00, 1022.4,   78.4, -999.0
11-02-2022, 00:10:32,    256,    0.1,    0.2,   0.00,   0.00, 1022.4,   78.4, -999.0
11-02-2022, 00:10:42,    257,    0.0,    0.1,   0.00,   0.00, 1022.4,   78.4, -999.0
11-02-2022, 00:10:52,    257,    0.0,    0.0,   0.00,   0.00, 1022.4,   78.3, -999.0
11-02-2022, 00:11:02,    257,    0.0,    0.1,   0.00,   0.00, 1022.3,   78.1, -999.0
11-02-2022, 00:11:12,    257,    0.0,    0.1,   0.00,   0.00, 1022.3,   78.2, -999.0
11-02-2022, 00:11:22,    257,    0.0,    0.1,   0.00,   0.00, 1022.4,   78.4, -999.0
11-02-2022, 00:11:32,    257,    0.0,    0.2,   0.00,   0.00, 1022.4,   78.3, -999.0
11-02-2022, 00:11:42,    257,    0.1,    0.1,   0.00,   0.00, 1022.4,   78.4, -999.0
11-02-2022, 00:11:52,    241,    0.9,    0.2,   0.00,   0.00, 1022.5,   78.6, -999.0
11-02-2022, 00:12:02,    245,    0.4,    0.2,   0.00,   0.00, 1022.5,   78.5, -999.0
11-02-2022, 00:12:12,    245,    0.6,    0.2,   0.00,   0.00, 1022.5,   78.6, -999.0
11-02-2022, 00:12:22,    244,    0.4,    0.2,   0.00,   0.00, 1022.5,   78.8, -999.0
11-02-2022, 00:12:31,    244,    0.0,    0.1,   0.00,   0.00, 1022.4,   78.4, -999.0
11-02-2022, 00:12:42,    244,    0.4,    0.3,   0.00,   0.00, 1022.5,   78.8, -999.0
11-02-2022, 00:12:52,    239,    0.7,    0.3,   0.00,   0.00, 1022.5,   78.8, -999.0
11-02-2022, 00:13:01,    240,    0.0,    0.1,   0.00,   0.00, 1022.4,   78.6, -999.0
11-02-2022, 00:13:11,    250,    0.2,    0.1,   0.00,   0.00, 1022.4,   78.7, -999.0
11-02-2022, 00:13:22,    248,    0.1,    0.2,   0.00,   0.00, 1022.4,   78.6, -999.0
11-02-2022, 00:13:31,    241,    1.4,    0.2,   0.00,   0.00, 1022.5,   78.8, -999.0
11-02-2022, 00:13:41,    248,    0.5,    0.3,   0.00,   0.00, 1022.5,   78.8, -999.0
11-02-2022, 00:13:51,    249,    0.0,    0.2,   0.00,   0.00, 1022.4,   78.5, -999.0
11-02-2022, 00:14:01,    249,    0.0,    0.1,   0.00,   0.00, 1022.4,   78.4, -999.0
11-02-2022, 00:14:11,    257,    0.6,    0.1,   0.00,   0.00, 1022.5,   78.7, -999.0
11-02-2022, 00:14:21,    256,    1.3,    0.2,   0.00,   0.00, 1022.5,   78.8, -999.0
11-02-2022, 00:14:31,    254,    2.0,    0.2,   0.00,   0.00, 1022.5,   78.8, -999.0
11-02-2022, 00:14:41,    253,    1.2,    0.1,   0.00,   0.00, 1022.5,   78.8, -999.0
11-02-2022, 00:14:51,    253,    1.0,    0.2,   0.00,   0.00, 1022.5,   78.8, -999.0
11-02-2022, 00:15:01,    239,    1.2,    0.2,   0.00,   0.00, 1022.5,   78.9, -999.0
11-02-2022, 00:15:11,    232,    1.8,    0.1,   0.00,   0.00, 1022.5,   78.7, -999.0
11-02-2022, 00:15:21,    237,    0.8,    0.2,   0.00,   0.00, 1022.6,   78.9, -999.0
11-02-2022, 00:15:31,    245,    1.0,    0.3,   0.00,   0.00, 1022.5,   79.0, -999.0
11-02-2022, 00:15:41,    251,    1.6,    0.2,   0.00,   0.00, 1022.6,   79.0, -999.0
11-02-2022, 00:15:51,    245,    1.1,    0.2,   0.00,   0.00, 1022.5,   78.9, -999.0
11-02-2022, 00:16:01,    242,    1.3,    0.2,   0.00,   0.00, 1022.5,   78.9, -999.0
11-02-2022, 00:16:11,    281,    1.1,    0.3,   0.00,   0.00, 1022.5,   78.9, -999.0
11-02-2022, 00:16:21,    254,    1.6,    0.2,   0.00,   0.00, 1022.5,   78.9, -999.0
11-02-2022, 00:16:31,    243,    2.6,    0.2,   0.00,   0.00, 1022.5,   79.0, -999.0
11-02-2022, 00:16:40,    251,    1.6,    0.2,   0.00,   0.00, 1022.6,   78.9, -999.0
11-02-2022, 00:16:50,    253,    1.5,    0.2,   0.00,   0.00, 1022.5,   78.9, -999.0
11-02-2022, 00:17:01,    253,    0.1,    0.1,   0.00,   0.00, 1022.5,   78.8, -999.0
11-02-2022, 00:17:10,    253,    0.0,    0.1,   0.00,   0.00, 1022.4,   78.6, -999.0
11-02-2022, 00:17:20,    258,    1.0,    0.1,   0.00,   0.00, 1022.6,   78.8, -999.0
11-02-2022, 00:17:30,    254,    0.6,    0.2,   0.00,   0.00, 1022.6,   79.0, -999.0
11-02-2022, 00:17:40,    267,    0.6,    0.2,   0.00,   0.00, 1022.6,   78.9, -999.0
11-02-2022, 00:17:50,    249,    0.8,    0.2,   0.00,   0.00, 1022.6,   78.9, -999.0
11-02-2022, 00:18:00,    249,    0.0,    0.1,   0.00,   0.00, 1022.5,   78.6, -999.0
11-02-2022, 00:18:10,    249,    0.0,    0.0,   0.00,   0.00, 1022.4,   78.5, -999.0
11-02-2022, 00:18:20,    249,    0.0,    0.1,   0.00,   0.00, 1022.4,   78.5, -999.0
11-02-2022, 00:18:30,    250,    0.1,    0.2,   0.00,   0.00, 1022.5,   78.8, -999.0
11-02-2022, 00:18:40,    266,    1.3,    0.2,   0.00,   0.00, 1022.6,   78.9, -999.0
11-02-2022, 00:18:50,    234,    2.0,    0.2,   0.00,   0.00, 1022.6,   79.0, -999.0
11-02-2022, 00:19:00,    253,    0.7,    0.2,   0.00,   0.00, 1022.6,   78.8, -999.0
11-02-2022, 00:19:10,    222,    1.2,    0.2,   0.00,   0.00, 1022.6,   78.9, -999.0
11-02-2022, 00:19:20,    256,    1.8,    0.2,   0.00,   0.00, 1022.6,   78.9, -999.0
11-02-2022, 00:19:30,    250,    1.0,    0.2,   0.00,   0.00, 1022.6,   79.1, -999.0
11-02-2022, 00:19:40,    250,    0.7,    0.2,   0.00,   0.00, 1022.6,   79.1, -999.0
11-02-2022, 00:19:49,    254,    0.8,    0.2,   0.00,   0.00, 1022.6,   79.0, -999.0
11-02-2022, 00:19:59,    254,    0.8,    0.2,   0.00,   0.00, 1022.6,   79.0, -999.0
11-02-2022, 00:20:10,    239,    0.7,    0.2,   0.00,   0.00, 1022.6,   78.9, -999.0
11-02-2022, 00:20:19,    262,    1.1,    0.2,   0.00,   0.00, 1022.6,   79.1, -999.0
11-02-2022, 00:20:29,    262,    0.1,    0.2,   0.00,   0.00, 1022.6,   78.9, -999.0
11-02-2022, 00:20:40,    263,    0.3,    0.2,   0.00,   0.00, 1022.6,   79.1, -999.0
11-02-2022, 00:20:49,    253,    0.6,    0.3,   0.00,   0.00, 1022.6,   79.1, -999.0
11-02-2022, 00:20:59,    252,    1.4,    0.2,   0.00,   0.00, 1022.6,   79.1, -999.0
11-02-2022, 00:21:09,    254,    0.8,    0.2,   0.00,   0.00, 1022.6,   79.1, -999.0
11-02-2022, 00:21:19,    243,    0.7,    0.2,   0.00,   0.00, 1022.6,   79.0, -999.0
11-02-2022, 00:21:29,    244,    1.6,    0.2,   0.00,   0.00, 1022.6,   79.1, -999.0
11-02-2022, 00:21:39,    263,    0.7,    0.1,   0.00,   0.00, 1022.6,   79.1, -999.0
11-02-2022, 00:21:49,    266,    0.9,    0.3,   0.00,   0.00, 1022.7,   79.2, -999.0
11-02-2022, 00:21:59,    265,    0.2,    0.2,   0.00,   0.00, 1022.6,   79.0, -999.0
11-02-2022, 00:22:09,    265,    0.0,    0.1,   0.00,   0.00, 1022.5,   78.8, -999.0
11-02-2022, 00:22:19,    264,    0.0,    0.1,   0.00,   0.00, 1022.5,   79.0, -999.0
11-02-2022, 00:22:29,    254,    0.1,    0.2,   0.00,   0.00, 1022.6,   79.0, -999.0
11-02-2022, 00:22:39,    254,    0.4,    0.3,   0.00,   0.00, 1022.7,   79.2, -999.0
11-02-2022, 00:22:49,    252,    0.1,    0.2,   0.00,   0.00, 1022.6,   79.1, -999.0
11-02-2022, 00:22:59,    252,    0.2,    0.2,   0.00,   0.00, 1022.6,   79.1, -999.0
11-02-2022, 00:23:09,    251,    0.3,    0.3,   0.00,   0.00, 1022.7,   79.2, -999.0
11-02-2022, 00:23:19,    252,    0.5,    0.2,   0.00,   0.00, 1022.7,   79.1, -999.0
11-02-2022, 00:23:28,    252,    0.0,    0.1,   0.00,   0.00, 1022.5,   78.9, -999.0
11-02-2022, 00:23:38,    276,    0.2,    0.1,   0.00,   0.00, 1022.5,   78.7, -999.0
11-02-2022, 00:23:49,    278,    1.0,    0.2,   0.00,   0.00, 1022.6,   79.0, -999.0
11-02-2022, 00:23:58,    278,    0.0,    0.2,   0.00,   0.00, 1022.5,   78.7, -999.0
11-02-2022, 00:24:08,    278,    0.0,    0.2,   0.00,   0.00, 1022.5,   78.6, -999.0
11-02-2022, 00:24:18,    278,    0.2,    0.3,   0.00,   0.00, 1022.6,   78.9, -999.0
11-02-2022, 00:24:28,    282,    1.2,    0.2,   0.00,   0.00, 1022.7,   79.1, -999.0
11-02-2022, 00:24:38,    281,    0.2,    0.2,   0.00,   0.00, 1022.6,   78.8, -999.0
11-02-2022, 00:24:48,    278,    0.0,    0.1,   0.00,   0.00, 1022.6,   78.9, -999.0
11-02-2022, 00:24:58,    271,    0.8,    0.3,   0.00,   0.00, 1022.7,   79.0, -999.0
11-02-2022, 00:25:08,    270,    0.3,    0.2,   0.00,   0.00, 1022.6,   79.0, -999.0
11-02-2022, 00:25:18,    270,    0.0,    0.1,   0.00,   0.00, 1022.5,   78.7, -999.0
11-02-2022, 00:25:28,    270,    0.0,    0.1,   0.00,   0.00, 1022.5,   78.7, -999.0
11-02-2022, 00:25:38,    270,    0.0,    0.1,   0.00,   0.00, 1022.5,   78.8, -999.0
11-02-2022, 00:25:48,    269,    0.1,    0.1,   0.00,   0.00, 1022.6,   78.9, -999.0
11-02-2022, 00:25:58,    268,    0.9,    0.2,   0.00,   0.00, 1022.7,   79.2, -999.0
11-02-2022, 00:26:08,    268,    0.6,    0.2,   0.00,   0.00, 1022.7,   79.3, -999.0
11-02-2022, 00:26:18,    267,    0.8,    0.2,   0.00,   0.00, 1022.7,   79.2, -999.0
11-02-2022, 00:26:28,    266,    0.3,    0.2,   0.00,   0.00, 1022.7,   79.1, -999.0
11-02-2022, 00:26:38,    267,    0.0,    0.1,   0.00,   0.00, 1022.5,   78.8, -999.0
11-02-2022, 00:26:47,    267,    0.0,    0.1,   0.00,   0.00, 1022.5,   78.9, -999.0
11-02-2022, 00:26:58,    268,    0.0,    0.0,   0.00,   0.00, 1022.6,   78.8, -999.0
11-02-2022, 00:27:07,    269,    0.3,    0.1,   0.00,   0.00, 1022.7,   79.1, -999.0
11-02-2022, 00:27:17,    269,    0.1,    0.1,   0.00,   0.00, 1022.6,   78.9, -999.0
11-02-2022, 00:27:28,    269,    0.0,    0.1,   0.00,   0.00, 1022.5,   78.7, -999.0
11-02-2022, 00:27:37,    269,    0.0,    0.1,   0.00,   0.00, 1022.6,   78.9, -999.0
11-02-2022, 00:27:47,    268,    0.0,    0.1,   0.00,   0.00, 1022.6,   79.0, -999.0
11-02-2022, 00:27:57,    218,    0.1,    0.1,   0.00,   0.00, 1022.6,   79.0, -999.0
11-02-2022, 00:28:07,    220,    0.3,    0.2,   0.00,   0.00, 1022.7,   79.3, -999.0
11-02-2022, 00:28:17,    220,    0.0,    0.2,   0.00,   0.00, 1022.6,   79.1, -999.0
11-02-2022, 00:28:27,    220,    0.1,    0.2,   0.00,   0.00, 1022.6,   79.4, -999.0
11-02-2022, 00:28:37,    221,    0.0,    0.1,   0.00,   0.00, 1022.5,   78.9, -999.0
11-02-2022, 00:28:47,    221,    0.0,    0.1,   0.00,   0.00, 1022.6,   78.9, -999.0
11-02-2022, 00:28:57,    222,    0.0,    0.1,   0.00,   0.00, 1022.5,   79.0, -999.0
11-02-2022, 00:29:07,    222,    0.0,    0.1,   0.00,   0.00, 1022.5,   79.0, -999.0
11-02-2022, 00:29:17,    222,    0.0,    0.1,   0.00,   0.00, 1022.5,   78.9, -999.0
11-02-2022, 00:29:27,    222,    0.0,    0.2,   0.00,   0.00, 1022.6,   79.1, -999.0
11-02-2022, 00:29:37,    223,    0.0,    0.2,   0.00,   0.00, 1022.6,   79.1, -999.0
11-02-2022, 00:29:47,    223,    0.2,    0.3,   0.00,   0.00, 1022.7,   79.3, -999.0
11-02-2022, 00:29:57,    223,    0.0,    0.2,   0.00,   0.00, 1022.6,   79.1, -999.0
11-02-2022, 00:30:07,    223,    0.0,    0.2,   0.00,   0.00, 1022.6,   79.1, -999.0
11-02-2022, 00:30:17,    278,    0.5,    0.2,   0.00,   0.00, 1022.7,   79.4, -999.0
11-02-2022, 00:30:26,    277,    0.3,    0.2,   0.00,   0.00, 1022.7,   79.3, -999.0
11-02-2022, 00:30:37,    276,    0.0,    0.2,   0.00,   0.00, 1022.6,   79.1, -999.0
11-02-2022, 00:30:46,    276,    0.0,    0.1,   0.00,   0.00, 1022.6,   79.0, -999.0
11-02-2022, 00:30:56,    276,    0.0,    0.1,   0.00,   0.00, 1022.6,   79.1, -999.0
11-02-2022, 00:31:06,    276,    0.0,    0.2,   0.00,   0.00, 1022.7,   79.2, -999.0
11-02-2022, 00:31:16,    276,    0.0,    0.1,   0.00,   0.00, 1022.6,   79.2, -999.0
11-02-2022, 00:31:26,    276,    0.0,    0.1,   0.00,   0.00, 1022.6,   79.1, -999.0
11-02-2022, 00:31:36,    276,    0.0,    0.2,   0.00,   0.00, 1022.6,   79.1, -999.0
11-02-2022, 00:31:46,    275,    0.0,    0.2,   0.00,   0.00, 1022.6,   79.3, -999.0
11-02-2022, 00:31:56,    275,    0.0,    0.2,   0.00,   0.00, 1022.6,   79.1, -999.0
11-02-2022, 00:32:06,    275,    0.0,    0.1,   0.00,   0.00, 1022.6,   79.1, -999.0
11-02-2022, 00:32:16,    276,    0.1,    0.1,   0.00,   0.00, 1022.7,   79.2, -999.0
11-02-2022, 00:32:26,    275,    0.1,    0.2,   0.00,   0.00, 1022.7,   79.2, -999.0
11-02-2022, 00:32:36,    275,    0.0,    0.1,   0.00,   0.00, 1022.6,   79.1, -999.0
11-02-2022, 00:32:46,    275,    0.0,    0.1,   0.00,   0.00, 1022.5,   79.1, -999.0
11-02-2022, 00:32:56,    275,    0.0,    0.0,   0.00,   0.00, 1022.6,   79.1, -999.0
11-02-2022, 00:33:06,    275,    0.4,    0.2,   0.00,   0.00, 1022.7,   79.2, -999.0
11-02-2022, 00:33:16,    274,    0.6,    0.2,   0.00,   0.00, 1022.7,   79.4, -999.0
11-02-2022, 00:33:26,    257,    0.6,    0.2,   0.00,   0.00, 1022.7,   79.5, -999.0
11-02-2022, 00:33:36,    249,    0.6,    0.2,   0.00,   0.00, 1022.7,   79.5, -999.0
11-02-2022, 00:33:46,    249,    0.5,    0.2,   0.00,   0.00, 1022.7,   79.6, -999.0
11-02-2022, 00:33:56,    250,    0.9,    0.3,   0.00,   0.00, 1022.8,   79.7, -999.0
11-02-2022, 00:34:05,    250,    0.2,    0.3,   0.00,   0.00, 1022.7,   79.4, -999.0
11-02-2022, 00:34:16,    250,    0.0,    0.1,   0.00,   0.00, 1022.6,   79.3, -999.0
11-02-2022, 00:34:25,    250,    0.3,    0.2,   0.00,   0.00, 1022.7,   79.4, -999.0
11-02-2022, 00:34:35,    240,    1.1,    0.3,   0.00,   0.00, 1022.8,   79.6, -999.0
11-02-2022, 00:34:45,    247,    0.6,    0.3,   0.00,   0.00, 1022.8,   79.7, -999.0
11-02-2022, 00:34:55,    249,    0.6,    0.2,   0.00,   0.00, 1022.8,   79.7, -999.0
11-02-2022, 00:35:05,    249,    0.0,    0.2,   0.00,   0.00, 1022.7,   79.5, -999.0
11-02-2022, 00:35:15,    250,    0.7,    0.2,   0.00,   0.00, 1022.7,   79.6, -999.0
11-02-2022, 00:35:25,    252,    1.6,    0.3,   0.00,   0.00, 1022.7,   79.6, -999.0
11-02-2022, 00:35:35,    243,    0.4,    0.3,   0.00,   0.00, 1022.7,   79.6, -999.0
11-02-2022, 00:35:45,    249,    1.4,    0.3,   0.00,   0.00, 1022.7,   79.7, -999.0
11-02-2022, 00:35:55,    240,    0.9,    0.2,   0.00,   0.00, 1022.7,   79.7, -999.0
11-02-2022, 00:36:05,    263,    1.2,    0.3,   0.00,   0.00, 1022.7,   79.7, -999.0
11-02-2022, 00:36:15,    258,    1.7,    0.3,   0.00,   0.00, 1022.7,   79.6, -999.0
11-02-2022, 00:36:25,    255,    0.5,    0.3,   0.00,   0.00, 1022.7,   79.6, -999.0
11-02-2022, 00:36:35,    252,    0.5,    0.2,   0.00,   0.00, 1022.7,   79.5, -999.0
11-02-2022, 00:36:45,    252,    0.4,    0.2,   0.00,   0.00, 1022.7,   79.6, -999.0
11-02-2022, 00:36:55,    253,    0.5,    0.2,   0.00,   0.00, 1022.7,   79.6, -999.0
11-02-2022, 00:37:05,    253,    0.1,    0.2,   0.00,   0.00, 1022.7,   79.5, -999.0
11-02-2022, 00:37:14,    253,    0.3,    0.2,   0.00,   0.00, 1022.7,   79.6, -999.0
11-02-2022, 00:37:25,    249,    1.4,    0.2,   0.00,   0.00, 1022.7,   79.5, -999.0
11-02-2022, 00:37:35,    260,    1.6,    0.3,   0.00,   0.00, 1022.7,   79.6, -999.0
11-02-2022, 00:37:44,    259,    0.2,    0.3,   0.00,   0.00, 1022.7,   79.4, -999.0
11-02-2022, 00:37:54,    260,    0.5,    0.2,   0.00,   0.00, 1022.6,   79.4, -999.0
11-02-2022, 00:38:04,    243,    1.9,    0.2,   0.00,   0.00, 1022.7,   79.6, -999.0
11-02-2022, 00:38:14,    255,    0.9,    0.2,   0.00,   0.00, 1022.7,   79.6, -999.0
11-02-2022, 00:38:24,    279,    1.0,    0.2,   0.00,   0.00, 1022.7,   79.7, -999.0
11-02-2022, 00:38:34,    276,    0.4,    0.3,   0.00,   0.00, 1022.7,   79.6, -999.0
11-02-2022, 00:38:44,    256,    1.4,    0.2,   0.00,   0.00, 1022.7,   79.7, -999.0
11-02-2022, 00:38:54,    255,    1.9,    0.2,   0.00,   0.00, 1022.7,   79.7, -999.0
11-02-2022, 00:39:04,    255,    0.9,    0.2,   0.00,   0.00, 1022.7,   79.7, -999.0
11-02-2022, 00:39:14,    254,    0.2,    0.2,   0.00,   0.00, 1022.6,   79.4, -999.0
11-02-2022, 00:39:24,    263,    1.0,    0.2,   0.00,   0.00, 1022.7,   79.6, -999.0
11-02-2022, 00:39:34,    261,    0.6,    0.2,   0.00,   0.00, 1022.7,   79.4, -999.0
11-02-2022, 00:39:44,    262,    0.4,    0.2,   0.00,   0.00, 1022.7,   79.6, -999.0
11-02-2022, 00:39:54,    251,    0.5,    0.3,   0.00,   0.00, 1022.7,   79.6, -999.0
11-02-2022, 00:40:04,    251,    0.1,    0.2,   0.00,   0.00, 1022.6,   79.3, -999.0
11-02-2022, 00:40:14,    251,    0.0,    0.1,   0.00,   0.00, 1022.6,   79.3, -999.0
11-02-2022, 00:40:24,    251,    0.4,    0.1,   0.00,   0.00, 1022.6,   79.4, -999.0
11-02-2022, 00:40:34,    275,    1.6,    0.3,   0.00,   0.00, 1022.7,   79.6, -999.0
11-02-2022, 00:40:44,    261,    0.8,    0.2,   0.00,   0.00, 1022.7,   79.7, -999.0
11-02-2022, 00:40:53,    251,    2.1,    0.2,   0.00,   0.00, 1022.7,   79.6, -999.0
11-02-2022, 00:41:04,    270,    1.7,    0.2,   0.00,   0.00, 1022.7,   79.6, -999.0
11-02-2022, 00:41:14,    279,    1.3,    0.3,   0.00,   0.00, 1022.7,   79.6, -999.0
11-02-2022, 00:41:23,    276,    0.9,    0.2,   0.00,   0.00, 1022.7,   79.7, -999.0
11-02-2022, 00:41:33,    276,    0.5,    0.3,   0.00,   0.00, 1022.7,   79.6, -999.0
11-02-2022, 00:41:44,    272,    0.2,    0.2,   0.00,   0.00, 1022.6,   79.6, -999.0
11-02-2022, 00:41:53,    271,    0.5,    0.2,   0.00,   0.00, 1022.7,   79.5, -999.0
11-02-2022, 00:42:03,    275,    0.7,    0.2,   0.00,   0.00, 1022.7,   79.6, -999.0
11-02-2022, 00:42:13,    274,    0.3,    0.2,   0.00,   0.00, 1022.7,   79.5, -999.0
11-02-2022, 00:42:23,    273,    0.0,    0.1,   0.00,   0.00, 1022.6,   79.2, -999.0
11-02-2022, 00:42:33,    275,    0.0,    0.2,   0.00,   0.00, 1022.6,   79.1, -999.0
11-02-2022, 00:42:43,    264,    0.2,    0.1,   0.00,   0.00, 1022.7,   79.5, -999.0
11-02-2022, 00:42:53,    264,    0.8,    0.2,   0.00,   0.00, 1022.7,   79.7, -999.0
11-02-2022, 00:43:03,    265,    0.7,    0.3,   0.00,   0.00, 1022.7,   79.6, -999.0
11-02-2022, 00:43:13,    264,    0.3,    0.2,   0.00,   0.00, 1022.7,   79.6, -999.0
11-02-2022, 00:43:23,    264,    0.0,    0.2,   0.00,   0.00, 1022.7,   79.3, -999.0
11-02-2022, 00:43:33,    264,    0.0,    0.0,   0.00,   0.00, 1022.6,   79.2, -999.0
11-02-2022, 00:43:43,    296,    0.1,    0.1,   0.00,   0.00, 1022.7,   79.5, -999.0
11-02-2022, 00:43:53,    295,    0.6,    0.2,   0.00,   0.00, 1022.7,   79.6, -999.0
11-02-2022, 00:44:02,    291,    0.9,    0.2,   0.00,   0.00, 1022.8,   79.7, -999.0
11-02-2022, 00:44:13,    262,    0.8,    0.2,   0.00,   0.00, 1022.7,   79.6, -999.0
11-02-2022, 00:44:24,    263,    0.0,    0.0,   0.00,   0.00, 1022.6,   79.2, -999.0
11-02-2022, 00:44:32,    263,    0.5,    0.1,   0.00,   0.00, 1022.8,   79.7, -999.0
11-02-2022, 00:44:43,    281,    0.2,    0.1,   0.00,   0.00, 1022.7,   79.6, -999.0
11-02-2022, 00:44:53,    265,    0.8,    0.2,   0.00,   0.00, 1022.8,   79.7, -999.0
11-02-2022, 00:45:02,    266,    0.0,    0.0,   0.00,   0.00, 1022.6,   79.3, -999.0
11-02-2022, 00:45:12,    295,    0.1,    0.1,   0.00,   0.00, 1022.7,   79.5, -999.0
11-02-2022, 00:45:23,    292,    0.6,    0.1,   0.00,   0.00, 1022.8,   79.7, -999.0
11-02-2022, 00:45:32,    291,    0.2,    0.2,   0.00,   0.00, 1022.8,   79.7, -999.0
11-02-2022, 00:45:42,    289,    0.0,    0.1,   0.00,   0.00, 1022.7,   79.4, -999.0
11-02-2022, 00:45:52,    289,    0.0,    0.1,   0.00,   0.00, 1022.6,   79.3, -999.0
11-02-2022, 00:46:02,    289,    0.1,    0.0,   0.00,   0.00, 1022.7,   79.4, -999.0
11-02-2022, 00:46:12,    289,    0.1,    0.0,   0.00,   0.00, 1022.7,   79.4, -999.0
11-02-2022, 00:46:22,    289,    0.0,    0.1,   0.00,   0.00, 1022.7,   79.3, -999.0
11-02-2022, 00:46:32,    321,    0.1,    0.1,   0.00,   0.00, 1022.7,   79.5, -999.0
11-02-2022, 00:46:42,    320,    0.9,    0.2,   0.00,   0.00, 1022.8,   79.8, -999.0